Time,TemperatureF,DewpointF,PressureIn,WindDirection,WindDirectionDegrees,WindSpeedMPH,WindSpeedGustMPH,Humidity,HourlyPrecipIn,Conditions,Clouds,dailyrainin,SoftwareType,DateUTC
2013-08-26 00:00:00,68.6,55.0,29.66,SSW,197,0.0,0.0,63,0.00,,,0.00,weatherlink.com 1.10,2013-08-26 06:00:00,
2013-08-26 00:15:00,68.5,55.0,29.65,SSW,200,0.0,0.0,63,0.00,,,0.00,weatherlink.com 1.10,2013-08-26 06:15:00,
2013-08-26 00:30:00,68.7,55.0,29.65,SSW,201,0.0,0.0,63,0.00,,,0.00,weatherlink.com 1.10,2013-08-26 06:30:00,
2013-08-26 00:45:00,68.0,56.0,29.65,SSW,207,0.0,0.0,66,0.00,,,0.00,weatherlink.com 1.10,2013-08-26 06:45:00,
2013-08-26 01:00:00,66.6,57.0,29.65,WSW,254,0.0,0.0,71,0.00,,,0.00,weatherlink.com 1.10,2013-08-26 07:00:00,
2013-08-26 01:15:00,65.0,57.0,29.65,WSW,255,0.0,0.0,75,0.00,,,0.00,weatherlink.com 1.10,2013-08-26 07:15:00,
2013-08-26 01:30:00,64.9,57.0,29.64,WSW,253,0.0,0.0,76,0.00,,,0.00,weatherlink.com 1.10,2013-08-26 07:30:00,
2013-08-26 01:45:00,64.6,57.0,29.65,South,191,0.0,0.0,77,0.00,,,0.00,weatherlink.com 1.10,2013-08-26 07:45:00,
2013-08-26 02:00:00,63.8,58.0,29.65,WSW,256,0.0,0.0,80,0.00,,,0.00,weatherlink.com 1.10,2013-08-26 08:00:00,
2013-08-26 02:15:00,63.3,58.0,29.64,SW,231,0.0,0.0,82,0.00,,,0.00,weatherlink.com 1.10,2013-08-26 08:15:00,
2013-08-26 02:30:00,63.5,57.0,29.65,West,269,0.0,0.0,79,0.00,,,0.00,weatherlink.com 1.10,2013-08-26 08:30:00,
2013-08-26 02:45:00,63.0,57.0,29.65,South,186,0.0,0.0,80,0.00,,,0.00,weatherlink.com 1.10,2013-08-26 08:45:00,
2013-08-26 03:00:00,63.5,57.0,29.65,West,271,0.0,0.0,79,0.00,,,0.00,weatherlink.com 1.10,2013-08-26 09:00:00,
2013-08-26 03:15:00,63.0,56.0,29.66,West,270,0.0,0.0,79,0.00,,,0.00,weatherlink.com 1.10,2013-08-26 09:15:00,
2013-08-26 03:30:00,62.6,57.0,29.66,West,270,0.0,0.0,81,0.00,,,0.00,weatherlink.com 1.10,2013-08-26 09:30:00,
2013-08-26 03:45:00,62.3,57.0,29.67,WSW,257,0.0,0.0,82,0.00,,,0.00,weatherlink.com 1.10,2013-08-26 09:45:00,
2013-08-26 04:00:00,62.4,57.0,29.67,WSW,257,0.0,0.0,82,0.00,,,0.00,weatherlink.com 1.10,2013-08-26 10:00:00,
2013-08-26 04:15:00,62.6,57.0,29.67,West,260,0.0,0.0,81,0.00,,,0.00,weatherlink.com 1.10,2013-08-26 10:15:00,
2013-08-26 04:30:00,62.0,56.0,29.67,West,260,0.0,0.0,81,0.00,,,0.00,weatherlink.com 1.10,2013-08-26 10:30:00,
2013-08-26 04:45:00,61.1,56.0,29.68,SW,226,0.0,1.0,83,0.00,,,0.00,weatherlink.com 1.10,2013-08-26 10:45:00,
2013-08-26 05:00:00,59.4,55.0,29.68,SW,233,0.0,0.0,85,0.00,,,0.00,weatherlink.com 1.10,2013-08-26 11:00:00,
2013-08-26 05:15:00,-999.0,-99.9,29.68,North,-999,-999.0,-999.0,-999,0.00,,,0.00,weatherlink.com 1.10,2013-08-26 11:15:00,
2013-08-26 05:30:00,-999.0,-99.9,29.69,North,-999,-999.0,-999.0,-999,0.00,,,0.00,weatherlink.com 1.10,2013-08-26 11:30:00,
2013-08-26 05:45:00,-999.0,-99.9,29.70,North,-999,-999.0,-999.0,-999,0.00,,,0.00,weatherlink.com 1.10,2013-08-26 11:45:00,
2013-08-26 06:01:00,-999.0,-99.9,29.70,North,-999,-999.0,-999.0,-999,0.00,,,0.00,weatherlink.com 1.10,2013-08-26 12:01:00,
2013-08-26 06:16:00,-999.0,-99.9,29.70,North,-999,-999.0,-999.0,-999,0.00,,,0.00,weatherlink.com 1.10,2013-08-26 12:16:00,
2013-08-26 06:31:00,-999.0,-99.9,29.70,North,-999,-999.0,-999.0,-999,0.00,,,0.00,weatherlink.com 1.10,2013-08-26 12:31:00,
2013-08-26 06:46:00,61.8,56.0,29.71,WSW,257,0.0,0.0,82,0.00,,,0.00,weatherlink.com 1.10,2013-08-26 12:46:00,
2013-08-26 07:01:00,63.4,58.0,29.71,West,264,0.0,0.0,81,0.00,,,0.00,weatherlink.com 1.10,2013-08-26 13:01:00,
2013-08-26 07:16:00,66.5,59.0,29.71,South,173,0.0,0.0,76,0.00,,,0.00,weatherlink.com 1.10,2013-08-26 13:16:00,
2013-08-26 07:31:00,67.5,58.0,29.71,WSW,244,0.0,0.0,72,0.00,,,0.00,weatherlink.com 1.10,2013-08-26 13:31:00,
2013-08-26 07:46:00,69.5,60.0,29.71,WSW,240,0.0,0.0,71,0.00,,,0.00,weatherlink.com 1.10,2013-08-26 13:46:00,
2013-08-26 08:01:00,70.0,58.0,29.71,West,278,0.0,0.0,66,0.00,,,0.00,weatherlink.com 1.10,2013-08-26 14:01:00,
2013-08-26 08:16:00,70.0,58.0,29.71,WSW,252,0.0,0.0,67,0.00,,,0.00,weatherlink.com 1.10,2013-08-26 14:16:00,
2013-08-26 08:31:00,69.6,59.0,29.70,WSW,246,0.0,1.0,70,0.00,,,0.00,weatherlink.com 1.10,2013-08-26 14:31:00,
2013-08-26 08:46:00,71.8,59.0,29.70,NW,322,0.0,1.0,65,0.00,,,0.00,weatherlink.com 1.10,2013-08-26 14:46:00,
2013-08-26 09:01:00,75.9,60.0,29.70,SW,225,0.0,1.0,58,0.00,,,0.00,weatherlink.com 1.10,2013-08-26 15:01:00,
2013-08-26 09:16:00,78.7,61.0,29.71,WNW,298,0.0,0.0,55,0.00,,,0.00,weatherlink.com 1.10,2013-08-26 15:16:00,
2013-08-26 09:31:00,80.9,61.0,29.71,SW,233,0.0,1.0,51,0.00,,,0.00,weatherlink.com 1.10,2013-08-26 15:31:00,
2013-08-26 09:46:00,82.8,60.0,29.70,WSW,243,0.0,1.0,46,0.00,,,0.00,weatherlink.com 1.10,2013-08-26 15:46:00,
2013-08-26 10:01:00,83.7,58.0,29.70,WSW,257,4.0,9.0,42,0.00,,,0.00,weatherlink.com 1.10,2013-08-26 16:01:00,
2013-08-26 10:16:00,84.2,57.0,29.70,West,274,4.0,8.0,40,0.00,,,0.00,weatherlink.com 1.10,2013-08-26 16:16:00,
2013-08-26 10:31:00,84.8,56.0,29.70,SW,233,9.0,11.0,37,0.00,,,0.00,weatherlink.com 1.10,2013-08-26 16:31:00,
2013-08-26 10:46:00,85.2,57.0,29.71,West,266,8.0,15.0,38,0.00,,,0.00,weatherlink.com 1.10,2013-08-26 16:46:00,
2013-08-26 11:01:00,86.1,57.0,29.70,West,260,6.0,10.0,37,0.00,,,0.00,weatherlink.com 1.10,2013-08-26 17:01:00,
2013-08-26 11:17:00,87.4,59.0,29.70,WSW,249,6.0,9.0,38,0.00,,,0.00,weatherlink.com 1.10,2013-08-26 17:17:00,
2013-08-26 11:32:00,88.4,57.0,29.69,SW,235,7.0,14.0,35,0.00,,,0.00,weatherlink.com 1.10,2013-08-26 17:32:00,
2013-08-26 11:47:00,88.0,57.0,29.68,WSW,240,8.0,13.0,35,0.00,,,0.00,weatherlink.com 1.10,2013-08-26 17:47:00,
2013-08-26 12:02:00,89.2,57.0,29.68,WNW,301,4.0,10.0,34,0.00,,,0.00,weatherlink.com 1.10,2013-08-26 18:02:00,
2013-08-26 12:17:00,89.0,56.0,29.68,WNW,284,8.0,14.0,33,0.00,,,0.00,weatherlink.com 1.10,2013-08-26 18:17:00,
2013-08-26 12:32:00,90.2,57.0,29.67,West,262,6.0,12.0,33,0.00,,,0.00,weatherlink.com 1.10,2013-08-26 18:32:00,
2013-08-26 12:47:00,90.2,55.0,29.67,WNW,291,8.0,14.0,30,0.00,,,0.00,weatherlink.com 1.10,2013-08-26 18:47:00,
2013-08-26 13:02:00,91.1,57.0,29.66,West,270,4.0,15.0,31,0.00,,,0.00,weatherlink.com 1.10,2013-08-26 19:02:00,
2013-08-26 13:17:00,91.6,54.0,29.66,SW,225,10.0,13.0,28,0.00,,,0.00,weatherlink.com 1.10,2013-08-26 19:17:00,
2013-08-26 13:32:00,92.1,56.0,29.66,SW,232,4.0,9.0,29,0.00,,,0.00,weatherlink.com 1.10,2013-08-26 19:32:00,
2013-08-26 13:47:00,92.1,57.0,29.66,West,277,4.0,12.0,30,0.00,,,0.00,weatherlink.com 1.10,2013-08-26 19:47:00,
2013-08-26 14:02:00,92.5,55.0,29.65,WSW,246,6.0,16.0,28,0.00,,,0.00,weatherlink.com 1.10,2013-08-26 20:02:00,
2013-08-26 14:17:00,92.5,55.0,29.64,WNW,295,11.0,12.0,28,0.00,,,0.00,weatherlink.com 1.10,2013-08-26 20:17:00,
2013-08-26 14:32:00,92.3,56.0,29.64,West,276,4.0,16.0,29,0.00,,,0.00,weatherlink.com 1.10,2013-08-26 20:32:00,
2013-08-26 14:47:00,92.7,56.0,29.63,WNW,285,4.0,13.0,29,0.00,,,0.00,weatherlink.com 1.10,2013-08-26 20:47:00,
2013-08-26 15:02:00,92.5,54.0,29.63,West,262,9.0,15.0,27,0.00,,,0.00,weatherlink.com 1.10,2013-08-26 21:02:00,
2013-08-26 15:17:00,93.1,54.0,29.63,West,266,4.0,12.0,27,0.00,,,0.00,weatherlink.com 1.10,2013-08-26 21:17:00,
2013-08-26 15:32:00,92.8,54.0,29.62,WNW,295,6.0,13.0,27,0.00,,,0.00,weatherlink.com 1.10,2013-08-26 21:32:00,
2013-08-26 15:47:00,92.9,55.0,29.62,West,262,6.0,14.0,28,0.00,,,0.00,weatherlink.com 1.10,2013-08-26 21:47:00,
2013-08-26 16:02:00,91.7,55.0,29.62,SW,236,4.0,11.0,29,0.00,,,0.00,weatherlink.com 1.10,2013-08-26 22:02:00,
2013-08-26 16:17:00,90.2,55.0,29.62,WSW,256,3.0,12.0,30,0.00,,,0.00,weatherlink.com 1.10,2013-08-26 22:17:00,
2013-08-26 16:32:00,90.2,54.0,29.62,SW,226,10.0,10.0,29,0.00,,,0.00,weatherlink.com 1.10,2013-08-26 22:32:00,
2013-08-26 16:47:00,92.5,54.0,29.62,West,262,3.0,12.0,27,0.00,,,0.00,weatherlink.com 1.10,2013-08-26 22:47:00,
2013-08-26 17:02:00,92.3,56.0,29.62,WNW,298,1.0,10.0,29,0.00,,,0.00,weatherlink.com 1.10,2013-08-26 23:02:00,
2013-08-26 17:17:00,91.2,54.0,29.62,West,278,2.0,8.0,28,0.00,,,0.00,weatherlink.com 1.10,2013-08-26 23:17:00,
2013-08-26 17:32:00,90.8,55.0,29.62,SW,231,4.0,5.0,30,0.00,,,0.00,weatherlink.com 1.10,2013-08-26 23:32:00,
2013-08-26 17:47:00,90.7,53.0,29.62,WSW,253,3.0,9.0,28,0.00,,,0.00,weatherlink.com 1.10,2013-08-26 23:47:00,
2013-08-26 18:02:00,89.5,55.0,29.62,WSW,256,3.0,10.0,31,0.00,,,0.00,weatherlink.com 1.10,2013-08-27 00:02:00,
2013-08-26 18:17:00,87.0,55.0,29.62,WNW,290,0.0,5.0,34,0.00,,,0.00,weatherlink.com 1.10,2013-08-27 00:17:00,
2013-08-26 18:32:00,86.8,56.0,29.62,West,266,0.0,0.0,35,0.00,,,0.00,weatherlink.com 1.10,2013-08-27 00:32:00,
2013-08-26 18:47:00,87.4,57.0,29.62,WNW,291,0.0,1.0,35,0.00,,,0.00,weatherlink.com 1.10,2013-08-27 00:47:00,
2013-08-26 19:02:00,86.1,56.0,29.62,WSW,253,0.0,0.0,36,0.00,,,0.00,weatherlink.com 1.10,2013-08-27 01:02:00,
2013-08-26 19:17:00,86.0,55.0,29.62,South,172,0.0,0.0,35,0.00,,,0.00,weatherlink.com 1.10,2013-08-27 01:17:00,
2013-08-26 19:32:00,84.9,55.0,29.62,South,186,0.0,0.0,36,0.00,,,0.00,weatherlink.com 1.10,2013-08-27 01:32:00,
2013-08-26 19:47:00,83.7,55.0,29.62,South,190,0.0,0.0,37,0.00,,,0.00,weatherlink.com 1.10,2013-08-27 01:47:00,
2013-08-26 20:02:00,82.1,55.0,29.62,South,190,0.0,0.0,39,0.00,,,0.00,weatherlink.com 1.10,2013-08-27 02:02:00,
2013-08-26 20:17:00,81.2,56.0,29.63,South,190,0.0,0.0,42,0.00,,,0.00,weatherlink.com 1.10,2013-08-27 02:17:00,
2013-08-26 20:32:00,80.1,56.0,29.63,South,190,0.0,0.0,44,0.00,,,0.00,weatherlink.com 1.10,2013-08-27 02:32:00,
2013-08-26 20:47:00,79.5,57.0,29.64,SSE,150,0.0,0.0,47,0.00,,,0.00,weatherlink.com 1.10,2013-08-27 02:47:00,
2013-08-26 21:02:00,79.7,56.0,29.65,South,179,0.0,1.0,45,0.00,,,0.00,weatherlink.com 1.10,2013-08-27 03:02:00,
2013-08-26 21:17:00,79.0,56.0,29.64,SSE,163,0.0,1.0,45,0.00,,,0.00,weatherlink.com 1.10,2013-08-27 03:17:00,
2013-08-26 21:32:00,78.7,56.0,29.64,WSW,245,0.0,0.0,46,0.00,,,0.00,weatherlink.com 1.10,2013-08-27 03:32:00,
2013-08-26 21:47:00,78.9,56.0,29.64,WNW,288,0.0,0.0,46,0.00,,,0.00,weatherlink.com 1.10,2013-08-27 03:47:00,
2013-08-26 22:02:00,78.8,57.0,29.65,West,262,0.0,0.0,47,0.00,,,0.00,weatherlink.com 1.10,2013-08-27 04:02:00,
2013-08-26 22:17:00,78.0,57.0,29.66,WSW,240,1.0,6.0,49,0.00,,,0.00,weatherlink.com 1.10,2013-08-27 04:17:00,
2013-08-26 22:32:00,77.8,57.0,29.66,SW,224,3.0,7.0,49,0.00,,,0.00,weatherlink.com 1.10,2013-08-27 04:32:00,
2013-08-26 22:47:00,77.8,57.0,29.65,SW,226,2.0,5.0,49,0.00,,,0.00,weatherlink.com 1.10,2013-08-27 04:47:00,
2013-08-26 23:02:00,77.8,57.0,29.65,West,274,0.0,4.0,49,0.00,,,0.00,weatherlink.com 1.10,2013-08-27 05:02:00,
2013-08-26 23:17:00,77.5,57.0,29.66,WSW,243,0.0,0.0,50,0.00,,,0.00,weatherlink.com 1.10,2013-08-27 05:17:00,
2013-08-26 23:32:00,76.9,59.0,29.67,SW,218,0.0,5.0,55,0.00,,,0.00,weatherlink.com 1.10,2013-08-27 05:32:00,
2013-08-26 23:47:00,75.5,60.0,29.66,West,273,0.0,1.0,59,0.00,,,0.00,weatherlink.com 1.10,2013-08-27 05:47:00,